Flag for Japan Weather past 2 weeks in Kawasaki, Japan

Now
72 °F

Passing clouds.


Feels Like: 77 °F
Forecast: 62 / 71 °F
Wind: 15 mph from North

Location: Tokyo International Airport

Current Time: Sep 18, 2014 at 9:07:06 PM

Latest Report: Sep 18, 2014 at 8:30 PM


Visibility: N/A

Pressure: 29.89 "Hg

Humidity: 41%

Dew point: 46 °F

Location of KawasakiLocation

Historic Weather in Kawasaki — Graph

°F

Kawasaki temperature yesterday

Maximum temperature yesterday: 79 °F (at 1:00 PM)
Minimum temperature yesterday: 70 °F (at 5:00 AM)
Average temperature yesterday: 73 °F

Past Weeks' High & Low Weather Summary

 TemperatureHumidityPressure
High86 °F (Sep 5, 11:30 AM)94% (Sep 6, 8:30 PM)29.98 "Hg (Sep 6, 8:30 PM)
Low66 °F (Sep 12, 2:30 AM)31% (Sep 18, 7:30 PM)29.62 "Hg (Sep 9, 2:00 AM)
Average74 °F77%29.83 "Hg
* Reported Sep 3 8:00 PM — Sep 18 8:00 PM, Kawasaki, Weather by CustomWeather, © 2014

Note: Actual official high and low records may vary slightly from our data, if they occured in-between our weather recording intervals... More about our weather records

Advertising

Kawasaki weather history for previous 24 hours

 ConditionsComfort  
Time TempWeatherWind HumidityBarometerVisibility
8:00 PM
Sep 18
72 °FPartly cloudy.14 mph33%29.89 "HgN/A
7:30 PM72 °FPassing clouds.13 mph31%29.89 "HgN/A
7:00 PM73 °FPassing clouds.16 mph33%29.89 "HgN/A
6:30 PM73 °FPassing clouds.14 mph36%29.86 "HgN/A
6:00 PM73 °FPartly cloudy.13 mph38%29.86 "HgN/A
5:30 PM73 °FPartly sunny.14 mph38%29.86 "HgN/A
5:00 PM75 °FBroken clouds.12 mph39%29.83 "HgN/A
4:30 PM73 °FBroken clouds.5 mph53%29.83 "HgN/A
4:00 PM73 °FBroken clouds.8 mph61%29.83 "HgN/A
3:30 PM73 °FPartly sunny.9 mph57%29.80 "HgN/A
3:00 PM75 °FPartly sunny.8 mph57%29.80 "HgN/A
2:30 PM73 °FPartly sunny.10 mph57%29.80 "HgN/A
2:00 PM73 °FOvercast.10 mph57%29.80 "HgN/A
1:30 PM73 °FPartly sunny.10 mph57%29.80 "HgN/A
1:00 PM73 °FPartly sunny.10 mph57%29.83 "HgN/A
12:30 PM73 °FBroken clouds.9 mph57%29.83 "HgN/A
12:00 PM73 °FBroken clouds.3 mph53%29.83 "HgN/A
11:30 AM73 °FBroken clouds.10 mph57%29.83 "HgN/A
11:00 AM73 °FPartly sunny.10 mph53%29.86 "HgN/A
10:30 AM72 °FPartly sunny.9 mph57%29.86 "HgN/A
10:00 AM72 °FBroken clouds.10 mph57%29.86 "HgN/A
9:30 AM72 °FBroken clouds.13 mph53%29.86 "HgN/A
9:00 AM72 °FPartly sunny.15 mph53%29.86 "HgN/A
8:30 AM70 °FPartly sunny.15 mph57%29.86 "HgN/A
8:00 AM70 °FPartly sunny.17 mph64%29.86 "HgN/A
7:30 AM68 °FBroken clouds.12 mph69%29.86 "HgN/A
7:00 AM68 °FPartly sunny.9 mph73%29.86 "HgN/A
6:30 AM68 °FPartly sunny.10 mph73%29.86 "HgN/A
6:00 AM68 °FPartly sunny.10 mph78%29.86 "HgN/A
5:30 AM68 °FPartly sunny.10 mph73%29.86 "HgN/A
5:00 AM68 °FPassing clouds.13 mph73%29.86 "HgN/A
4:30 AM68 °FPassing clouds.14 mph73%29.86 "HgN/A
4:00 AM70 °FPassing clouds.12 mph69%29.83 "HgN/A
3:30 AM70 °FPassing clouds.15 mph69%29.83 "HgN/A
3:00 AM70 °FPassing clouds.14 mph69%29.83 "HgN/A
2:30 AM70 °FPassing clouds.14 mph69%29.83 "HgN/A
2:00 AM70 °FSprinkles. Passing clouds.15 mph69%29.83 "HgN/A
1:30 AM70 °FSprinkles. Passing clouds.15 mph64%29.86 "HgN/A
1:00 AM70 °FPassing clouds.15 mph69%29.86 "HgN/A
12:30 AM70 °FPassing clouds.15 mph69%29.86 "HgN/A
12:00 AM70 °FPassing clouds.15 mph73%29.86 "HgN/A
11:30 PM
Sep 17
70 °FPassing clouds.15 mph78%29.86 "HgN/A
11:00 PM72 °FPassing clouds.16 mph73%29.86 "HgN/A
10:30 PM72 °FPassing clouds.14 mph73%29.89 "HgN/A
10:00 PM72 °FPassing clouds.12 mph73%29.89 "HgN/A
9:30 PM72 °FPassing clouds.9 mph73%29.89 "HgN/A
9:00 PM72 °FPassing clouds.9 mph69%29.89 "HgN/A
Weather by CustomWeather, © 2014

See weather overviewHow to use our weather pages